Location: Kikino
(54.4440°N, 112.0940°W)
Time: 10:42:34
(UTC+00:00)

AO-27 - Pass Details

Date: 09 December 2023
Orbit: 783 x 797 km, 98.8° (Epoch: 22 February)

Event Time Altitude Azimuth Distance (km) Brightness Sun altitude
Exits shadow 02:29:57 15° 360° (N) 2,063 9.8 -28.4°
Drops below altitude 10° 02:30:51 10° 355° (N) 2,382 10.2 -28.5°
Sets 02:33:20 0° 348° (NNW) 3,317 11.0 -28.9°
